[[{"header":{"parameterUnit":"m.s-1","parameterCategory":1,"la1":30.2991,"la2":30.254,"lo1":-89.0895,"lo2":-89.0444,"dy":0.0017,"dx":0.0017,"nx":28,"ny":28,"refTime":"2025-03-30T21:00:00:Z","depth":0,"parameterNumber":2,"parameterNumberName":"U-component_of_WINDS"},"data":[0,0,0,0,0,0,0,0,0,0,0,0,0,0,0,0,0,0,0,0,0,0,0,0,0,0,0,0,0,0,0,0,0,0,0,0,0,0,0,0,0,0,0,0,0,0,0,0,0,0,0,0,0,0,0,0,0,0,-0.3389,-0.339,0,-0.3428,-0.3429,-0.3429,-0.3414,-0.3413,-0.3412,-0.3411,-0.3452,-0.3454,-0.3456,0,0,0,0,0,0,0,0,0,0,0,0,0,-0.33,-0.3302,-0.3389,-0.339,-0.339,-0.3428,-0.3429,-0.3429,-0.3414,-0.3413,-0.3411,-0.341,-0.3451,-0.3453,-0.3456,0,0,0,0,0,0,0,0,0,0,0,0,0,-0.3339,-0.3302,-0.3389,-0.3387,-0.3387,-0.3428,-0.3429,-0.3429,-0.3414,-0.3413,-0.3411,-0.341,-0.345,-0.3453,-0.3456,-0.3502,0,0,-0.3465,-0.3466,0,0,0,0,0,0,0,0,-0.3337,-0.3342,-0.3387,-0.3387,-0.3387,-0.3415,-0.3412,-0.3454,-0.3414,-0.3404,-0.3411,-0.3409,-0.3441,-0.3444,-0.3455,-0.3504,-0.3505,-0.3465,-0.3467,-0.3468,-0.3469,0,0,0,0,0,0,0,-0.3334,-0.334,-0.3405,-0.3387,-0.3388,-0.3384,-0.3388,-0.342,-0.3429,-0.3405,-0.3404,-0.3408,-0.344,-0.3452,-0.3455,-0.3506,-0.3465,-0.3468,-0.347,-0.3471,-0.359,-0.3591,0,0,0,0,0,0,-0.3331,-0.3338,-0.3403,-0.3406,-0.3358,-0.3386,-0.3391,-0.3407,-0.3429,-0.3431,-0.3409,-0.3407,-0.3447,-0.3452,-0.3457,-0.3508,-0.3468,-0.3471,-0.3473,-0.3588,-0.359,-0.3592,0,0,0,0,0,0,-0.3329,-0.3337,-0.3402,-0.3372,-0.338,-0.3389,-0.3408,-0.3409,-0.342,-0.3433,-0.3434,-0.3419,-0.3447,-0.3453,-0.3489,-0.351,-0.3472,-0.3475,-0.3587,-0.3589,-0.3591,-0.3614,0,0,0,0,0,0,-0.3327,-0.3337,-0.3355,-0.3372,-0.3381,-0.3435,-0.3409,-0.3411,-0.3425,-0.3423,-0.3442,-0.3444,-0.3446,-0.3485,-0.3492,-0.3513,-0.3477,-0.3585,-0.3588,-0.359,-0.3611,-0.3617,-0.3621,0,0,0,0,0,-0.3324,-0.3361,-0.3356,-0.3364,-0.3404,-0.3436,-0.3441,-0.3442,-0.3427,-0.3444,-0.3452,-0.3444,-0.3507,-0.3489,-0.3497,-0.3519,-0.3584,-0.3587,-0.359,-0.3609,-0.3616,-0.3621,0,0,0,0,0,0,-0.3347,-0.3363,-0.3358,-0.3402,-0.3417,-0.3433,-0.3456,-0.3449,-0.347,-0.3467,-0.3467,-0.3472,-0.3509,-0.3518,-0.3498,-0.3562,-0.3543,-0.3548,-0.3555,-0.3561,-0.3565,-0.3562,-0.348,0,0,0,0,0,-0.3357,-0.3381,-0.3395,-0.3432,-0.344,-0.3446,-0.346,-0.3459,-0.3476,-0.3482,-0.3493,-0.3509,-0.3532,-0.3547,-0.3569,-0.3613,-0.3615,-0.3631,-0.3636,-0.364,-0.3644,-0.3664,-0.367,-0.3602,-0.3602,-0.3602,0,0,-0.3379,-0.339,-0.3406,-0.3437,-0.3449,-0.3473,-0.3452,-0.348,-0.3497,-0.3487,-0.3521,-0.3529,-0.3547,-0.3586,-0.3604,-0.3595,-0.3663,-0.3644,-0.3647,-0.3649,-0.3668,-0.3674,-0.368,-0.3604,-0.3604,-0.3603,0,0,-0.3429,-0.3442,-0.3472,-0.3484,-0.3501,-0.3505,-0.3512,-0.3528,-0.3533,-0.3567,-0.3558,-0.3579,-0.362,-0.3632,-0.3643,-0.3694,-0.3686,-0.3701,-0.3726,-0.3746,-0.3751,-0.3756,-0.3771,-0.3777,-0.3705,-0.3706,-0.3706,0,-0.3454,-0.349,-0.3489,-0.3516,-0.3528,-0.3519,-0.3548,-0.356,-0.3584,-0.3593,-0.3582,-0.363,-0.3642,-0.3681,-0.3693,-0.3704,-0.3711,-0.3699,-0.375,-0.3755,-0.3759,-0.3774,-0.378,-0.3707,-0.3707,-0.3707,-0.3707,0,-0.3517,-0.3542,-0.3565,-0.3586,-0.3601,-0.363,-0.3632,-0.3648,-0.3645,-0.3649,-0.3682,-0.3695,-0.3718,-0.3728,-0.3726,-0.3767,-0.376,-0.375,-0.373,-0.3767,-0.3781,-0.3787,-0.3709,-0.3709,-0.3708,-0.3708,0,0,-0.3585,-0.3603,-0.3611,-0.3619,-0.3636,-0.3655,-0.3682,-0.3703,-0.3715,-0.3732,-0.3752,-0.3785,-0.3775,-0.3787,-0.3787,-0.3804,-0.3839,-0.3791,-0.3792,-0.3797,-0.3881,-0.3887,-0.3894,-0.3835,-0.3836,-0.3837,-0.3879,0,-0.3635,-0.3681,-0.3679,-0.3722,-0.3743,-0.3733,-0.3755,-0.3768,-0.3772,-0.379,-0.3795,-0.3816,-0.3803,-0.3809,-0.3826,-0.3832,-0.3856,-0.3829,-0.3853,-0.3854,-0.3847,-0.3902,-0.3909,-0.3948,-0.3884,-0.3885,-0.3886,0,-0.37,-0.3715,-0.376,-0.377,-0.3778,-0.3799,-0.3816,-0.3834,-0.3847,-0.3849,-0.3861,-0.3857,-0.3882,-0.3862,-0.3896,-0.3878,-0.3887,-0.3891,-0.3892,-0.3893,-0.3871,-0.3902,-0.3961,-0.3966,-0.3895,-0.3894,-0.3894,0,-0.374,-0.3773,-0.3803,-0.381,-0.3824,-0.3838,-0.3844,-0.3856,-0.3867,-0.3882,-0.3889,-0.3908,-0.3918,-0.3932,-0.3931,-0.3918,-0.3965,-0.3946,-0.3965,-0.3965,-0.3974,-0.3974,-0.4034,-0.3984,-0.3984,-0.3984,-0.3984,0,-0.3795,-0.3822,-0.3821,-0.3839,-0.3868,-0.3865,-0.3893,-0.3898,-0.3908,-0.3926,-0.3919,-0.3936,-0.3935,-0.3952,-0.3953,-0.3979,-0.3984,-0.3985,-0.3984,-0.3984,-0.3984,-0.3989,-0.3986,-0.3986,-0.3985,-0.3985,-0.3985,0,-0.3845,-0.3846,-0.3877,-0.3886,-0.3889,-0.3909,-0.3917,-0.3933,-0.3936,-0.3958,-0.3963,-0.3967,-0.3986,-0.3987,-0.401,-0.401,-0.4041,-0.4039,-0.4036,-0.4035,-0.4053,-0.405,-0.4117,-0.4125,-0.4073,-0.4073,-0.4074,0,-0.3879,-0.3899,-0.3909,-0.392,-0.3926,-0.3944,-0.3955,-0.3953,-0.3964,-0.3978,-0.3992,-0.401,-0.4024,-0.4055,-0.406,-0.4076,-0.4073,-0.4095,-0.4075,-0.4074,-0.407,-0.4068,-0.4068,-0.4098,-0.4099,-0.41,-0.41,0,-0.3938,-0.3936,-0.3952,-0.3966,-0.3979,-0.3991,-0.4002,-0.4011,-0.401,-0.4023,-0.4041,-0.4052,-0.4074,-0.4091,-0.4107,-0.4113,-0.4105,-0.4106,-0.4111,-0.411,-0.4107,-0.4106,-0.4044,-0.4104,-0.4104,-0.4104,-0.4103,-0.4103,-0.3979,-0.3995,-0.4003,-0.4019,-0.4027,-0.4036,-0.4051,-0.4054,-0.4069,-0.4085,-0.4083,-0.4103,-0.4113,-0.4132,-0.4139,-0.4154,-0.4147,-0.4154,-0.4156,-0.4157,-0.4158,-0.4106,-0.4157,-0.4157,-0.4157,-0.4157,-0.4157,0,-0.4035,-0.4039,-0.4054,-0.4068,-0.408,-0.4072,-0.4082,-0.4093,-0.411,-0.412,-0.4133,-0.4152,-0.4168,-0.4173,-0.4188,-0.4199,-0.4196,-0.4203,-0.4201,-0.4202,-0.4165,-0.4158,-0.4205,-0.4205,-0.4205,-0.4205,-0.4205,-0.4204,-0.4065,-0.409,-0.4088,-0.4116,-0.412,-0.4138,-0.4145,-0.4153,-0.4159,-0.4181,-0.4194,-0.4196,-0.4203,-0.4218,-0.4231,-0.4232,-0.4237,-0.4245,-0.4244,-0.421,-0.4205,-0.42,-0.4193,-0.4246,-0.4246,-0.4279,-0.4279,-0.4279]},{"header":{"parameterUnit":"m.s-1","parameterCategory":1,"la1":30.2991,"la2":30.254,"lo1":-89.0895,"lo2":-89.0444,"dy":0.0017,"dx":0.0017,"nx":28,"ny":28,"refTime":"2025-03-30T21:00:00:Z","depth":0,"parameterNumber":3,"parameterNumberName":"V-component_of_WINDS"},"data":[0,0,0,0,0,0,0,0,0,0,0,0,0,0,0,0,0,0,0,0,0,0,0,0,0,0,0,0,0,0,0,0,0,0,0,0,0,0,0,0,0,0,0,0,0,0,0,0,0,0,0,0,0,0,0,0,0,0,4.7954,4.7954,0,4.7972,4.7972,4.7972,4.7978,4.7978,4.7977,4.7977,4.7994,4.7994,4.7995,0,0,0,0,0,0,0,0,0,0,0,0,0,4.7921,4.7922,4.7954,4.7954,4.7954,4.7972,4.7972,4.7972,4.7978,4.7978,4.7977,4.7977,4.7993,4.7994,4.7995,0,0,0,0,0,0,0,0,0,0,0,0,0,4.7937,4.7922,4.7954,4.7959,4.796,4.7972,4.7972,4.7973,4.7978,4.7978,4.7977,4.7977,4.7993,4.7994,4.7995,4.8002,0,0,4.7997,4.7997,0,0,0,0,0,0,0,0,4.7936,4.7938,4.7958,4.7959,4.796,4.7973,4.7967,4.7982,4.7978,4.7971,4.7977,4.7977,4.7986,4.7988,4.7991,4.8003,4.8004,4.7997,4.7998,4.7998,4.7998,0,0,0,0,0,0,0,4.7935,4.7937,4.7961,4.7958,4.7959,4.796,4.7962,4.797,4.7979,4.7971,4.7972,4.7974,4.7987,4.7991,4.7992,4.8004,4.7997,4.7998,4.7998,4.7999,4.8022,4.8022,0,0,0,0,0,0,4.7933,4.7936,4.796,4.7962,4.7947,4.796,4.7963,4.7968,4.7979,4.7981,4.7974,4.7974,4.7989,4.7991,4.7992,4.8002,4.7998,4.7999,4.7999,4.8022,4.8022,4.8022,0,0,0,0,0,0,4.7933,4.7935,4.796,4.7949,4.7952,4.7961,4.7967,4.7969,4.7973,4.7981,4.7983,4.7977,4.7989,4.7991,4.8,4.8003,4.7999,4.8,4.8022,4.8022,4.8022,4.8021,0,0,0,0,0,0,4.7932,4.7935,4.7939,4.7949,4.7953,4.7968,4.7968,4.7969,4.7974,4.7975,4.7984,4.7985,4.7989,4.7999,4.8001,4.8004,4.8,4.8022,4.8022,4.8022,4.8021,4.8021,4.8022,0,0,0,0,0,4.793,4.7937,4.7939,4.7942,4.7958,4.7968,4.797,4.7975,4.7975,4.7978,4.7983,4.7985,4.8002,4.8,4.8002,4.8005,4.8022,4.8022,4.8022,4.8021,4.8021,4.8022,0,0,0,0,0,0,4.7926,4.7939,4.7941,4.7951,4.7958,4.7969,4.7973,4.7975,4.7983,4.7982,4.7988,4.799,4.7998,4.8002,4.7999,4.8013,4.8012,4.8013,4.801,4.801,4.8011,4.801,4.8001,0,0,0,0,0,4.7926,4.7934,4.7944,4.7953,4.7956,4.7964,4.7969,4.7972,4.798,4.7983,4.7989,4.7995,4.8002,4.8006,4.8013,4.8022,4.8024,4.8025,4.8025,4.8025,4.8026,4.8031,4.8032,4.8024,4.8024,4.8024,0,0,4.7926,4.7934,4.7939,4.7952,4.7958,4.7965,4.7966,4.7974,4.798,4.7983,4.7992,4.7997,4.8004,4.8013,4.8017,4.8017,4.8029,4.8026,4.8026,4.8027,4.8031,4.8032,4.8033,4.8024,4.8024,4.8024,0,0,4.7931,4.7938,4.7946,4.7952,4.7962,4.7967,4.7969,4.7979,4.7982,4.7991,4.7994,4.8,4.8012,4.8017,4.8021,4.8028,4.803,4.803,4.8032,4.8036,4.8037,4.8038,4.804,4.8041,4.8031,4.8031,4.8031,0,4.793,4.7943,4.7949,4.7957,4.7963,4.7967,4.7975,4.798,4.7991,4.7994,4.7994,4.8009,4.8014,4.8024,4.8026,4.8029,4.8031,4.8029,4.8037,4.8037,4.8038,4.804,4.8041,4.8031,4.8031,4.8031,4.8031,0,4.7941,4.795,4.7955,4.7966,4.7972,4.7979,4.7986,4.7991,4.7994,4.7999,4.8008,4.8015,4.8023,4.8025,4.8028,4.8036,4.8035,4.8036,4.8035,4.8038,4.8041,4.8042,4.8031,4.8031,4.8031,4.8031,0,0,4.7944,4.7959,4.7961,4.7966,4.7977,4.7983,4.799,4.7999,4.8004,4.8011,4.8017,4.8027,4.8027,4.8032,4.8035,4.8039,4.8044,4.8039,4.8039,4.804,4.8053,4.8053,4.8054,4.8045,4.8045,4.8046,4.8052,0,4.795,4.7965,4.7971,4.7983,4.799,4.7994,4.8001,4.8008,4.8012,4.8019,4.8024,4.8031,4.8031,4.8034,4.8038,4.8043,4.8047,4.8042,4.8051,4.8051,4.8049,4.8055,4.8055,4.8062,4.8053,4.8054,4.8054,0,4.796,4.7968,4.7981,4.7991,4.7994,4.8,4.8009,4.8015,4.8023,4.8026,4.8031,4.8034,4.8042,4.804,4.805,4.8046,4.805,4.8053,4.8053,4.8055,4.8053,4.8057,4.8064,4.8065,4.8055,4.8055,4.8055,0,4.7961,4.7975,4.7985,4.7989,4.8001,4.8005,4.801,4.8017,4.8022,4.8029,4.8033,4.804,4.8044,4.805,4.8054,4.8053,4.8064,4.8063,4.8066,4.8066,4.8069,4.8069,4.8076,4.807,4.807,4.807,4.807,0,4.7968,4.7975,4.7985,4.7991,4.7999,4.8006,4.8014,4.8019,4.8025,4.8032,4.8035,4.8041,4.8047,4.8053,4.8057,4.8064,4.8066,4.8068,4.8069,4.8068,4.8068,4.8071,4.8071,4.8071,4.8071,4.807,4.807,0,4.797,4.7977,4.7988,4.7999,4.8001,4.8007,4.8016,4.8021,4.8026,4.8034,4.8036,4.8043,4.8051,4.8056,4.8065,4.8068,4.8076,4.8077,4.8074,4.8075,4.8078,4.8078,4.8089,4.809,4.8083,4.8083,4.8083,0,4.7974,4.798,4.7992,4.7997,4.8002,4.801,4.8015,4.8021,4.8027,4.8036,4.804,4.8048,4.8055,4.8067,4.8072,4.8079,4.808,4.8084,4.8081,4.808,4.8081,4.8081,4.8081,4.8084,4.8084,4.8084,4.8084,0,4.7981,4.7984,4.7992,4.8002,4.8008,4.8016,4.8023,4.8026,4.8034,4.8039,4.8048,4.8053,4.8063,4.8071,4.8078,4.8082,4.8084,4.8085,4.8086,4.8085,4.8084,4.8085,4.8075,4.8085,4.8084,4.8084,4.8084,4.8084,4.7985,4.799,4.8,4.8008,4.8015,4.8022,4.8027,4.8033,4.804,4.805,4.8053,4.8061,4.8068,4.8079,4.8083,4.8089,4.8089,4.8091,4.8091,4.8092,4.8092,4.8082,4.8091,4.8091,4.8091,4.8091,4.8091,0,4.7992,4.7998,4.8006,4.8017,4.8024,4.8026,4.8034,4.8039,4.8047,4.8054,4.8061,4.807,4.8077,4.8084,4.8091,4.8095,4.8096,4.8097,4.8097,4.8098,4.8092,4.809,4.8096,4.8096,4.8096,4.8096,4.8096,4.8096,4.7996,4.8006,4.8011,4.8023,4.8029,4.8039,4.8043,4.8049,4.8055,4.8065,4.8072,4.8076,4.8083,4.8091,4.8098,4.8099,4.8102,4.8103,4.8104,4.8099,4.8098,4.8098,4.8096,4.8103,4.8103,4.811,4.811,4.811]}]]